Regional Weather Roundup
Issued by NWS

Home | Current Version | Previous Version | Text Only | Print | Product List | Glossary On
Versions: 1 2 3 4 5 6 7 8 9 10 11 12 13 14 15 16 17 18 19 20 21 22 23 24 25 26 27 28 29 30 31 32 33 34 35 36 37 38 39 40 41 42 43 44 45 46 47 48 49 50
314
ASUS44 KFWD 291801
RWRTX
NORTH TEXAS HOURLY WEATHER ROUNDUP
NATIONAL WEATHER SERVICE FORT WORTH TX
100 PM CDT MON MAY 29 2017

NOTE: "FAIR" INDICATES FEW OR NO CLOUDS BELOW 12,000 FEET WITH NO
SIGNIFICANT WEATHER AND/OR OBSTRUCTIONS TO VISIBILITY.

TXZ118-119-291900-
DALLAS/FORT WORTH METROPLEX

CITY           SKY/WX    TMP DP  RH WIND       PRES   REMARKS
DFW AIRPORT    PTSUNNY   84  52  33 S5        30.07F
6HR MIN TEMP:  68; 6HR MAX TEMP:  86;

DALLAS LOVE    CLOUDY    83  54  36 VRB5      30.07F
6HR MIN TEMP:  69; 6HR MAX TEMP:  84;

FTW MEACHAM    MOSUNNY   87  52  29 NE9       30.07F
6HR MIN TEMP:  67; 6HR MAX TEMP:  87;

DAL-EXECUTIVE  MOSUNNY   83  60  45 MISG      30.07F
6HR MIN TEMP:  66; 6HR MAX TEMP:  83;

FTW-ALLIANCE   PTSUNNY   86  53  32 E5        30.08F
6HR MIN TEMP:  62; 6HR MAX TEMP:  86;

FTW-NAS-JRB    MOSUNNY   86  49  27 SE10      30.08F
6HR MIN TEMP:  67; 6HR MAX TEMP:  86;

FTW-SPINKS     SUNNY     84  52  32 CALM      30.10F
ARLINGTON      MOSUNNY   83  54  36 E7        30.08F
6HR MIN TEMP:  66; 6HR MAX TEMP:  83;

GRAND PRAIRIE  SUNNY     81  54  39 NE5       30.09F
ADDISON        SUNNY     82  50  32 E9        30.09F
MESQUITE       MOSUNNY   81  63  54 SE3       30.09S
LANCASTER      CLOUDY    80  61  52 CALM      30.08F
6HR MIN TEMP:  66; 6HR MAX TEMP:  81;

$$

TXZ091>094-102>105-117-120-121-131>134-291900-
NORTH CENTRAL TEXAS

CITY           SKY/WX    TMP DP  RH WIND       PRES   REMARKS
SHRMAN/DENISON NOT AVBL
GAINESVILLE    SUNNY     83  50  32 E6        30.12S
6HR MIN TEMP:  62; 6HR MAX TEMP:  83;

BOWIE          CLOUDY    84  51  31 E7        30.11S
6HR MIN TEMP:  62; 6HR MAX TEMP:  84;

BRIDGEPORT     SUNNY     83  52  33 E5        30.12F
6HR MIN TEMP:  61; 6HR MAX TEMP:  83;

DECATUR        MOSUNNY   83  51  33 NE10      30.11F
6HR MIN TEMP:  65; 6HR MAX TEMP:  83;

DENTON         SUNNY     83  56  39 SE8       30.08F
6HR MIN TEMP:  62; 6HR MAX TEMP:  84;

MCKINNEY       PTSUNNY   82  57  42 E7        30.09S
6HR MIN TEMP:  64; 6HR MAX TEMP:  82;

BONHAM         CLOUDY    81  55  41 SE12      30.09F
GREENVILLE       N/A     82  63  51 NE5       30.09F
ROCKWALL       CLOUDY    80  62  53 CALM      30.09F
6HR MIN TEMP:  65; 6HR MAX TEMP:  81; 6HR PCP:  0.01;

TERRELL        CLOUDY    80  62  54 CALM      30.08F
6HR MIN TEMP:  67; 6HR MAX TEMP:  80;

WAXAHACHIE     MOSUNNY   80  62  54 CALM      30.09F
6HR MIN TEMP:  66; 6HR MAX TEMP:  80;

CLEBURNE       CLOUDY    82  59  44 VRB5      30.10F
GRANBURY       MOSUNNY   84  50  30 NE6       30.10F
6HR MIN TEMP:  65; 6HR MAX TEMP:  85;

$$

TXZ083>090-098>101-113>116-127>130-139>142-154-155-291900-
WESTERN NORTH TEXAS

CITY           SKY/WX    TMP DP  RH WIND       PRES   REMARKS
WICHITA FALLS  SUNNY     85  44  23 E9        30.09F
6HR MIN TEMP:  59; 6HR MAX TEMP:  86;

WF-KICKAPOO    SUNNY     84  48  28 NE5       30.12S
6HR MIN TEMP:  64; 6HR MAX TEMP:  84;

VERNON         SUNNY     85  34  15 SE5       30.12S
6HR MIN TEMP:  60; 6HR MAX TEMP: 102;

ABILENE        CLOUDY    79  46  31 E9        30.14F
BRECKENRIDGE   SUNNY     85  45  24 E14       30.11S
6HR MIN TEMP:  62; 6HR MAX TEMP:  85;

CISCO          SUNNY     81  50  34 E9G22     30.14S
EASTLAND       MOSUNNY   82  52  36 E8        30.12F
6HR MIN TEMP:  62; 6HR MAX TEMP:  82;

RANGER         SUNNY     81  51  34 SE7       30.13S
6HR MIN TEMP:  62; 6HR MAX TEMP:  82;

MINERAL WELLS  SUNNY     86  45  23 NE12G22   30.08F
6HR MIN TEMP:  61; 6HR MAX TEMP:  86;

STEPHENVILLE   SUNNY     82  54  38 CALM      30.13F
6HR MIN TEMP:  65; 6HR MAX TEMP:  82;

COMANCHE       MOSUNNY   79  59  49 SE6       30.12S
BROWNWOOD      MOSUNNY   81  57  44 E7        30.12S
COLEMAN        MOSUNNY   81  50  33 SE5       30.13S
6HR MIN TEMP:  65; 6HR MAX TEMP:  82;

$$

TXZ143>147-156>162-174-175-291900-
CENTRAL TEXAS

CITY           SKY/WX    TMP DP  RH WIND       PRES   REMARKS
WACO           CLOUDY    80  68  66 CALM      30.06F
6HR MIN TEMP:  71; 6HR MAX TEMP:  81;

WACO-TSTC      PTSUNNY   82  68  61 NE6       30.07
WACO-MCGREGOR  CLOUDY    80  69  69 CALM      30.07F
6HR MIN TEMP:  70; 6HR MAX TEMP:  80;

HILLSBORO      MOSUNNY   81  66  60 NE6       30.08F
6HR MIN TEMP:  66; 6HR MAX TEMP:  81;

CORSICANA      PTSUNNY   81  68  64 NE7       30.07F
6HR MIN TEMP:  71; 6HR MAX TEMP:  81;

MEXIA          CLOUDY    78  68  72 S6        30.06F
6HR MIN TEMP:  69; 6HR MAX TEMP:  78;

HEARNE         CLOUDY    78  70  77 W6        30.07F
6HR MIN TEMP:  68; 6HR MAX TEMP:  78;

TEMPLE         CLOUDY    79  70  74 SE9       30.08F
6HR MIN TEMP:  68; 6HR MAX TEMP:  79;

KILLEEN        PTSUNNY   77  67  72 S7        30.08F
6HR MIN TEMP:  69; 6HR MAX TEMP:  77;

KILLEEN-SKYLRK CLOUDY    79  69  71 S7        30.08F
6HR MIN TEMP:  69; 6HR MAX TEMP:  79;

FORT HOOD      CLOUDY    76  67  74 S6        30.05F
6HR MIN TEMP:  67; 6HR MAX TEMP:  77;

HAMILTON       PTSUNNY   81  65  58 E6        30.11F
6HR MIN TEMP:  66; 6HR MAX TEMP:  81;

LAMPASAS       CLOUDY    76  68  78 SE8       30.09S
6HR MIN TEMP:  71; 6HR MAX TEMP:  78;

$$

TXZ095>097-106>112-122>126-135>138-148>153-164>167-291900-
EAST TEXAS

CITY           SKY/WX    TMP DP  RH WIND       PRES   REMARKS
PARIS          CLOUDY    81  57  44 E10       30.08F
6HR MIN TEMP:  63; 6HR MAX TEMP:  81;

SULPHUR SPRNGS CLOUDY    81  60  49 N5        30.09F
6HR MIN TEMP:  67; 6HR MAX TEMP:  82;

GILMER         CLOUDY    78  67  67 NE3       30.06F
6HR MIN TEMP:  68; 6HR MAX TEMP:  79;

MINEOLA        PTSUNNY   79  68  69 E3        30.06F
TYLER          CLOUDY    79  67  66 NW5       30.06F
6HR MIN TEMP:  70; 6HR MAX TEMP:  80;

LONGVIEW       CLOUDY   N/A N/A N/A S5        30.06F
MARSHALL       CLOUDY    73  67  82 CALM      30.08F
6HR MIN TEMP:  65; 6HR MAX TEMP:  73;

ATHENS         CLOUDY    77  64  65 CALM      30.05F
PALESTINE      CLOUDY    76  70  83 SW3       30.08F
JACKSONVILLE   CLOUDY    73  71  92 CALM      30.08F
HENDERSON      CLOUDY    74  70  87 MISG      30.07F
                                      6HR PCP:  0.01;

CENTER         CLOUDY    76  71  83 W3        30.06F
6HR MIN TEMP:  70; 6HR MAX TEMP:  76;

NACOGDOCHES    CLOUDY    77  70  78 N3        30.04S
6HR MIN TEMP:  66; 6HR MAX TEMP:  79;

LUFKIN         CLOUDY    78  68  71 W6        30.04F
6HR MIN TEMP:  66; 6HR MAX TEMP:  79;

$$

SUPPLEMENTAL OBSERVATIONS (NWS FORT WORTH AREA)

CITY           SKY/WX    TMP DP  RH WIND       PRES   REMARKS
$$

SUPPLEMENTAL OBSERVATIONS (NWS NORMAN AREA)

CITY           SKY/WX    TMP DP  RH WIND       PRES   REMARKS
GOODLETT         N/A     85  38  18 E6        30.12S
ODELL            N/A     85  41  20 N5        30.13S
CROWELL          N/A     83  44  25 CALM      30.14S
KNOX CITY        N/A     85  40  20 E7G14     30.13F
SEYMOUR          N/A     84  45  25 E6        30.12F
$$

SUPPLEMENTAL OBSERVATIONS (NWS SAN ANGELO AREA)

CITY           SKY/WX    TMP DP  RH WIND       PRES   REMARKS
WEINERT          N/A     85  43  22 SE9       30.13F
HASKELL          N/A     82  40  21 SE5G13    30.13F
THROCKMORTON     N/A     84  48  28 SE6       30.13F
STAMFORD         N/A     82  44  25 NE9       30.14F
CLYDE            N/A     79  52  39 NE6



USA.gov is the U.S. government's official web portal to all federal, state and local government web resources and services.